Weather History for Cincinnati, OH

Change the Weather History Date:

Friday, December 20, 2013

  Actual Average Record
Temperature  
Mean Temperature 55 °F -  
Max Temperature 60 °F 41 °F 68 °F (1949)
Min Temperature 50 °F 26 °F -4 °F (1981)
Degree Days  
Heating Degree Days 10    
Growing Degree Days 5 (Base 50)    
Moisture  
Dew Point 46 °F    
Average Humidity 75    
Maximum Humidity 90    
Minimum Humidity 45    
Precipitation  
Precipitation 0.01 in - - ()
Sea Level Pressure  
Sea Level Pressure 29.91 in    
Wind  
Wind Speed 13 mph (SSW)    
Max Wind Speed 18 mph    
Max Gust Speed 24 mph    
Visibility 10 miles    
Events Rain    
Averages and records for this station are not official NWS values.
T = Trace of Precipitation, MM = Missing Value Source: NWS Daily Summary

Daily Weather History Graph

Daily Weather History Graph

Search for Another Location

Airport:

Trip Planner

Search our weather history database for the weather conditions in past years. The results will help you decide how hot, cold, wet, or windy it might be!

Date:

Astronomy

Dec. 20, 2013 Rise Set
Actual Time 7:52 AM EST 5:18 PM EST
Civil Twilight 7:22 AM EST 5:48 PM EST
Nautical Twilight 6:49 AM EST 6:21 PM EST
Astronomical Twilight 6:16 AM EST 6:54 PM EST
Moon 8:36 PM EST (12/20) 9:47 AM EST (12/20)
Length of Visible Light 10h 25m
Length of Day
9h 25m
Waning Gibbous, 90% of the Moon is Illuminated
Dec 20
Waning Gibbous
Dec 25
Last Quarter
Jan 1
New
Jan 7
First Quarter
Jan 15
Full

Hourly Weather History & Observations

Time (EST) Temp. Dew Point Humidity Pressure Visibility Wind Dir Wind Speed Gust Speed Precip Events Conditions
12:53 AM 54.0 °F 33.1 °F 45% 29.98 in 10.0 mi SSW 13.8 mph - N/A   Overcast
1:53 AM 53.1 °F 33.1 °F 47% 29.96 in 10.0 mi SSW 13.8 mph - N/A   Overcast
2:53 AM 53.1 °F 34.0 °F 48% 29.97 in 10.0 mi South 13.8 mph - N/A   Overcast
3:53 AM 54.0 °F 34.0 °F 47% 29.96 in 10.0 mi South 11.5 mph - N/A   Overcast
4:53 AM 54.0 °F 36.0 °F 51% 29.96 in 10.0 mi SSW 11.5 mph - N/A   Overcast
5:53 AM 53.1 °F 37.9 °F 57% 29.95 in 10.0 mi SSW 11.5 mph - 0.00 in Rain Light Rain
6:53 AM 52.0 °F 39.0 °F 61% 29.94 in 10.0 mi SSW 11.5 mph 20.7 mph 0.00 in   Overcast
7:53 AM 52.0 °F 39.9 °F 63% 29.94 in 10.0 mi SSW 13.8 mph 23.0 mph 0.00 in Rain Light Rain
8:53 AM 50.0 °F 41.0 °F 71% 29.95 in 10.0 mi South 11.5 mph - 0.00 in   Overcast
9:53 AM 51.1 °F 41.0 °F 68% 29.95 in 10.0 mi South 10.4 mph 19.6 mph N/A   Overcast
10:17 AM 51.8 °F 42.8 °F 71% 29.96 in 10.0 mi SSW 11.5 mph - N/A   Overcast
10:53 AM 54.0 °F 44.1 °F 69% 29.96 in 10.0 mi SSW 15.0 mph 23.0 mph N/A   Overcast
11:53 AM 54.0 °F 46.9 °F 77% 29.94 in 10.0 mi SSW 16.1 mph 24.2 mph N/A   Overcast
12:53 PM 53.1 °F 48.9 °F 86% 29.91 in 10.0 mi SSW 15.0 mph 21.9 mph 0.00 in Rain Light Rain
1:44 PM 53.6 °F 50.0 °F 88% 29.89 in 10.0 mi South 10.4 mph - 0.01 in   Overcast
1:53 PM 53.1 °F 50.0 °F 89% 29.89 in 10.0 mi South 13.8 mph - 0.01 in   Overcast
2:53 PM 54.0 °F 51.1 °F 90% 29.87 in 10.0 mi South 11.5 mph - N/A   Overcast
3:45 PM 55.4 °F 51.8 °F 88% 29.87 in 10.0 mi South 12.7 mph - N/A   Overcast
3:53 PM 55.0 °F 52.0 °F 89% 29.87 in 10.0 mi South 11.5 mph - N/A   Overcast
4:53 PM 55.9 °F 53.1 °F 90% 29.88 in 10.0 mi South 11.5 mph - N/A   Overcast
5:53 PM 57.0 °F 54.0 °F 89% 29.88 in 10.0 mi South 12.7 mph - N/A   Overcast
6:46 PM 57.2 °F 53.6 °F 88% 29.89 in 10.0 mi South 11.5 mph - N/A   Overcast
6:53 PM 57.9 °F 54.0 °F 87% 29.89 in 10.0 mi South 10.4 mph - N/A   Overcast
7:53 PM 57.9 °F 54.0 °F 87% 29.88 in 10.0 mi South 12.7 mph - N/A   Mostly Cloudy
8:53 PM 59.0 °F 55.9 °F 90% 29.89 in 10.0 mi South 17.3 mph - N/A   Overcast
9:53 PM 60.1 °F 55.9 °F 86% 29.87 in 10.0 mi South 18.4 mph 24.2 mph N/A   Overcast
10:53 PM 60.1 °F 55.9 °F 86% 29.86 in 10.0 mi South 12.7 mph - N/A   Overcast
11:53 PM 60.1 °F 55.9 °F 86% 29.85 in 10.0 mi South 12.7 mph - N/A   Overcast